AFR89VR LFPG-LFLL

Flight info

Callsign AFR89VR
Flight time 0h 44m
Altitude 27000
Route OKASI DCT OKEKO DCT OKEPI DCT MOU A3 FEDZI
Aircraft A320/M-SDE2E3FGIJ1RWY/HB1

Departure

Time 2026-05-05 20:21
Airport Charles de Gaulle International Airport (LFPG)

Arrival

Time 2026-05-05 21:06
Airport Lyon Saint-Exupéry Airport (LFLL)
Time Latitude Longitude Altitude Speed Heading
2026-05-05 20:00 49.00714 2.57399 354 ft 0 kts 184°
2026-05-05 20:09 49.00716 2.57399 354 ft 2 kts 184°
2026-05-05 20:09 49.00741 2.57404 357 ft 4 kts 200°
2026-05-05 20:09 49.00760 2.57424 359 ft 4 kts 251°
2026-05-05 20:09 49.00763 2.57436 362 ft 1 kts 265°
2026-05-05 20:12 49.00762 2.57432 363 ft 1 kts 265°
2026-05-05 20:12 49.00761 2.57405 361 ft 5 kts 266°
2026-05-05 20:12 49.00757 2.57314 354 ft 13 kts 266°
2026-05-05 20:13 49.00804 2.57213 356 ft 13 kts 346°
2026-05-05 20:13 49.00855 2.57142 358 ft 10 kts 269°
2026-05-05 20:13 49.00851 2.57042 358 ft 10 kts 266°
2026-05-05 20:13 49.00844 2.56913 354 ft 13 kts 265°
2026-05-05 20:14 49.00835 2.56750 359 ft 17 kts 265°
2026-05-05 20:14 49.00826 2.56579 354 ft 16 kts 264°
2026-05-05 20:14 49.00815 2.56426 354 ft 13 kts 262°
2026-05-05 20:14 49.00803 2.56304 357 ft 10 kts 262°
2026-05-05 20:15 49.00792 2.56186 362 ft 13 kts 262°
2026-05-05 20:15 49.00776 2.56026 357 ft 17 kts 261°
2026-05-05 20:15 49.00762 2.55872 357 ft 12 kts 261°
2026-05-05 20:15 49.00752 2.55773 354 ft 7 kts 262°
2026-05-05 20:16 49.00746 2.55704 357 ft 7 kts 263°
2026-05-05 20:16 49.00737 2.55578 362 ft 17 kts 263°
2026-05-05 20:16 49.00725 2.55413 359 ft 13 kts 264°
2026-05-05 20:16 49.00703 2.55308 357 ft 9 kts 240°
2026-05-05 20:17 49.00644 2.55246 354 ft 11 kts 178°
2026-05-05 20:17 49.00577 2.55274 361 ft 13 kts 163°
2026-05-05 20:17 49.00467 2.55321 358 ft 17 kts 164°
2026-05-05 20:17 49.00371 2.55362 354 ft 12 kts 164°
2026-05-05 20:18 49.00295 2.55394 357 ft 15 kts 164°
2026-05-05 20:18 49.00166 2.55451 357 ft 22 kts 163°
2026-05-05 20:18 49.00041 2.55509 360 ft 16 kts 164°
2026-05-05 20:18 48.99951 2.55545 358 ft 11 kts 162°
2026-05-05 20:19 48.99892 2.55590 358 ft 11 kts 143°
2026-05-05 20:19 48.99839 2.55718 361 ft 16 kts 114°
2026-05-05 20:19 48.99768 2.55806 360 ft 12 kts 175°
2026-05-05 20:19 48.99696 2.55813 354 ft 10 kts 176°
2026-05-05 20:20 48.99621 2.55816 354 ft 10 kts 179°
2026-05-05 20:20 48.99602 2.55870 354 ft 0 kts 86°
2026-05-05 20:20 48.99603 2.55885 353 ft 9 kts 86°
2026-05-05 20:20 48.99629 2.56337 363 ft 80 kts 85°
2026-05-05 20:21 48.99692 2.57518 351 ft 140 kts 85°
2026-05-05 20:21 48.99768 2.59176 681 ft 159 kts 87°
2026-05-05 20:21 48.99845 2.60799 1504 ft 153 kts 80°
2026-05-05 20:21 48.99944 2.62387 2306 ft 150 kts 78°
2026-05-05 20:22 49.00033 2.63969 2992 ft 150 kts 82°
2026-05-05 20:22 49.00120 2.65560 3589 ft 153 kts 82°
2026-05-05 20:22 49.00213 2.67281 3933 ft 174 kts 83°
2026-05-05 20:22 49.00320 2.69234 4267 ft 197 kts 84°
2026-05-05 20:23 49.00438 2.71431 4586 ft 220 kts 84°
2026-05-05 20:23 49.00565 2.73885 4945 ft 245 kts 84°
2026-05-05 20:23 49.00702 2.76592 5466 ft 265 kts 84°
2026-05-05 20:23 49.00621 2.79437 6284 ft 274 kts 98°
2026-05-05 20:24 49.00322 2.82320 7147 ft 278 kts 99°
2026-05-05 20:24 49.00005 2.85243 8052 ft 282 kts 100°
2026-05-05 20:24 48.99679 2.88201 8961 ft 285 kts 101°
2026-05-05 20:24 48.99460 2.90182 9561 ft 288 kts 101°
2026-05-05 20:25 48.99125 2.93235 10208 ft 301 kts 101°
2026-05-05 20:25 48.98741 2.96491 10549 ft 322 kts 107°
2026-05-05 20:25 48.97329 3.00537 11392 ft 329 kts 133°
2026-05-05 20:25 48.96190 3.02072 11886 ft 332 kts 148°
2026-05-05 20:26 48.94098 3.03504 12661 ft 333 kts 168°
2026-05-05 20:26 48.91787 3.03703 13421 ft 335 kts 189°
2026-05-05 20:26 48.89582 3.02607 14141 ft 336 kts 210°
2026-05-05 20:26 48.87616 3.00658 14834 ft 339 kts 214°
2026-05-05 20:27 48.85658 2.98627 15519 ft 343 kts 214°
2026-05-05 20:27 48.83682 2.96574 16240 ft 346 kts 214°
2026-05-05 20:27 48.81620 2.94665 16877 ft 351 kts 203°
2026-05-05 20:27 48.79248 2.93763 17510 ft 356 kts 184°
2026-05-05 20:28 48.76777 2.94127 18168 ft 360 kts 168°
2026-05-05 20:28 48.74323 2.94970 18769 ft 363 kts 167°
2026-05-05 20:28 48.71851 2.95839 19382 ft 366 kts 167°
2026-05-05 20:28 48.69364 2.96719 19994 ft 368 kts 167°
2026-05-05 20:29 48.66860 2.97604 20593 ft 371 kts 167°
2026-05-05 20:29 48.64334 2.98493 21200 ft 374 kts 166°
2026-05-05 20:29 48.61786 2.99381 21789 ft 377 kts 166°
2026-05-05 20:29 48.59211 3.00272 22355 ft 381 kts 166°
2026-05-05 20:30 48.56613 3.01172 22923 ft 385 kts 166°
2026-05-05 20:30 48.53992 3.02077 23483 ft 388 kts 166°
2026-05-05 20:30 48.51351 3.02981 23959 ft 390 kts 166°
2026-05-05 20:30 48.48697 3.03889 24442 ft 393 kts 166°
2026-05-05 20:31 48.46026 3.04809 24901 ft 395 kts 166°
2026-05-05 20:31 48.43336 3.05741 25335 ft 398 kts 166°
2026-05-05 20:31 48.40664 3.06664 25782 ft 400 kts 166°
2026-05-05 20:31 48.37941 3.07604 26239 ft 402 kts 166°
2026-05-05 20:32 48.35207 3.08545 26668 ft 404 kts 166°
2026-05-05 20:32 48.32457 3.09489 26812 ft 404 kts 166°
2026-05-05 20:32 48.29774 3.10404 26832 ft 388 kts 166°
2026-05-05 20:32 48.27166 3.11290 26832 ft 382 kts 166°
2026-05-05 20:33 48.24583 3.12169 26836 ft 380 kts 166°
2026-05-05 20:33 48.22018 3.13047 26838 ft 379 kts 166°
2026-05-05 20:33 48.19439 3.13931 26838 ft 379 kts 166°
2026-05-05 20:33 48.16860 3.14815 26845 ft 378 kts 167°
2026-05-05 20:34 48.14306 3.15686 26838 ft 377 kts 167°
2026-05-05 20:34 48.11746 3.16555 26843 ft 377 kts 167°
2026-05-05 20:34 48.09183 3.17424 26847 ft 378 kts 167°
2026-05-05 20:34 48.06621 3.18292 26846 ft 377 kts 167°
2026-05-05 20:35 48.04060 3.19157 26844 ft 377 kts 167°
2026-05-05 20:35 48.01498 3.20021 26842 ft 377 kts 167°
2026-05-05 20:35 47.98937 3.20885 26844 ft 377 kts 167°
2026-05-05 20:35 47.96377 3.21750 26854 ft 377 kts 167°
2026-05-05 20:36 47.93817 3.22615 26854 ft 377 kts 167°
2026-05-05 20:36 47.91260 3.23482 26855 ft 377 kts 167°
2026-05-05 20:36 47.88703 3.24346 26853 ft 377 kts 167°
2026-05-05 20:36 47.86146 3.25206 26853 ft 377 kts 167°
2026-05-05 20:37 47.83585 3.26065 26859 ft 377 kts 167°
2026-05-05 20:37 47.81029 3.26918 26860 ft 377 kts 167°
2026-05-05 20:37 47.78473 3.27772 26853 ft 376 kts 167°
2026-05-05 20:37 47.75919 3.28626 26859 ft 376 kts 167°
2026-05-05 20:38 47.73363 3.29479 26858 ft 376 kts 168°
2026-05-05 20:38 47.70811 3.30332 26859 ft 376 kts 168°
2026-05-05 20:38 47.68260 3.31186 26849 ft 376 kts 168°
2026-05-05 20:38 47.65709 3.32038 26870 ft 376 kts 168°
2026-05-05 20:39 47.63159 3.32889 26859 ft 376 kts 167°
2026-05-05 20:39 47.60611 3.33742 26868 ft 376 kts 167°
2026-05-05 20:39 47.58063 3.34595 26871 ft 375 kts 167°
2026-05-05 20:39 47.55516 3.35443 26867 ft 375 kts 168°
2026-05-05 20:40 47.52971 3.36286 26872 ft 375 kts 169°
2026-05-05 20:40 47.50430 3.37130 26876 ft 374 kts 168°
2026-05-05 20:40 47.47919 3.38155 26886 ft 375 kts 158°
2026-05-05 20:40 47.45680 3.40125 26886 ft 377 kts 145°
2026-05-05 20:41 47.43583 3.42470 26883 ft 378 kts 145°
2026-05-05 20:41 47.41497 3.44825 26881 ft 377 kts 144°
2026-05-05 20:41 47.39413 3.47183 26878 ft 377 kts 144°
2026-05-05 20:41 47.37330 3.49540 26881 ft 377 kts 145°
2026-05-05 20:42 47.35245 3.51892 26880 ft 377 kts 145°
2026-05-05 20:42 47.33188 3.54213 26878 ft 377 kts 144°
2026-05-05 20:42 47.31075 3.56598 26883 ft 377 kts 146°
2026-05-05 20:42 47.28990 3.58946 26876 ft 377 kts 146°
2026-05-05 20:43 47.26902 3.61287 26867 ft 377 kts 146°
2026-05-05 20:43 47.24811 3.63625 26874 ft 377 kts 146°
2026-05-05 20:43 47.22725 3.65955 26878 ft 377 kts 146°
2026-05-05 20:43 47.20631 3.68293 26878 ft 377 kts 146°
2026-05-05 20:44 47.18544 3.70622 26880 ft 377 kts 146°
2026-05-05 20:44 47.16455 3.72954 26840 ft 376 kts 146°
2026-05-05 20:44 47.14388 3.75258 26580 ft 370 kts 146°
2026-05-05 20:44 47.12376 3.77501 26322 ft 367 kts 146°
2026-05-05 20:45 47.08328 3.82003 25810 ft 363 kts 146°
2026-05-05 20:45 47.06316 3.84237 25564 ft 362 kts 146°
2026-05-05 20:45 47.04310 3.86461 25314 ft 361 kts 146°
2026-05-05 20:46 47.02311 3.88675 25062 ft 360 kts 146°
2026-05-05 20:46 47.00318 3.90879 24820 ft 358 kts 146°
2026-05-05 20:46 46.98332 3.93074 24576 ft 357 kts 146°
2026-05-05 20:46 46.96350 3.95263 24335 ft 356 kts 146°
2026-05-05 20:47 46.94376 3.97441 24098 ft 355 kts 146°
2026-05-05 20:47 46.92408 3.99608 23862 ft 354 kts 146°
2026-05-05 20:47 46.90443 4.01774 23627 ft 353 kts 146°
2026-05-05 20:47 46.88490 4.03927 23369 ft 351 kts 146°
2026-05-05 20:48 46.86544 4.06069 23090 ft 349 kts 146°
2026-05-05 20:48 46.84610 4.08196 22795 ft 347 kts 146°
2026-05-05 20:48 46.82682 4.10310 22523 ft 346 kts 146°
2026-05-05 20:48 46.80760 4.12412 22250 ft 344 kts 146°
2026-05-05 20:49 46.78848 4.14501 21983 ft 343 kts 146°
2026-05-05 20:49 46.76942 4.16584 21714 ft 342 kts 146°
2026-05-05 20:49 46.75041 4.18663 21449 ft 340 kts 146°
2026-05-05 20:49 46.73154 4.20728 21187 ft 339 kts 146°
2026-05-05 20:50 46.71272 4.22788 20926 ft 338 kts 146°
2026-05-05 20:50 46.69395 4.24836 20669 ft 337 kts 146°
2026-05-05 20:50 46.67521 4.26878 20401 ft 335 kts 146°
2026-05-05 20:50 46.65655 4.28906 20165 ft 334 kts 146°
2026-05-05 20:51 46.63799 4.30924 19916 ft 333 kts 146°
2026-05-05 20:51 46.61947 4.32937 19663 ft 332 kts 146°
2026-05-05 20:51 46.60108 4.34935 19296 ft 329 kts 146°
2026-05-05 20:51 46.58282 4.36920 18901 ft 327 kts 146°
2026-05-05 20:52 46.56460 4.38896 18383 ft 328 kts 146°
2026-05-05 20:52 46.54608 4.40892 17379 ft 343 kts 146°
2026-05-05 20:52 46.52620 4.43030 16290 ft 358 kts 146°
2026-05-05 20:52 46.50623 4.45184 15512 ft 365 kts 145°
2026-05-05 20:53 46.48588 4.47385 14926 ft 364 kts 145°
2026-05-05 20:53 46.46563 4.49578 14388 ft 362 kts 145°
2026-05-05 20:53 46.44552 4.51755 13870 ft 360 kts 145°
2026-05-05 20:53 46.42550 4.53916 13305 ft 357 kts 146°
2026-05-05 20:54 46.40561 4.56053 12729 ft 355 kts 146°
2026-05-05 20:54 46.38585 4.58171 12176 ft 352 kts 146°
2026-05-05 20:54 46.36621 4.60277 11920 ft 351 kts 146°
2026-05-05 20:54 46.34658 4.62384 11909 ft 351 kts 146°
2026-05-05 20:55 46.32693 4.64492 11722 ft 350 kts 145°
2026-05-05 20:55 46.30784 4.66546 11383 ft 331 kts 146°
2026-05-05 20:55 46.28999 4.68467 11118 ft 311 kts 146°
2026-05-05 20:55 46.27285 4.70303 10878 ft 303 kts 146°
2026-05-05 20:56 46.25610 4.72092 10627 ft 296 kts 146°
2026-05-05 20:56 46.23971 4.73839 10381 ft 290 kts 146°
2026-05-05 20:56 46.22357 4.75557 10141 ft 287 kts 146°
2026-05-05 20:56 46.20757 4.77260 9899 ft 285 kts 146°
2026-05-05 20:57 46.19161 4.78957 9745 ft 284 kts 146°
2026-05-05 20:57 46.17575 4.80644 9612 ft 283 kts 146°
2026-05-05 20:57 46.15992 4.82326 9479 ft 282 kts 146°
2026-05-05 20:57 46.14407 4.84006 9333 ft 281 kts 146°
2026-05-05 20:58 46.12843 4.85665 8989 ft 278 kts 146°
2026-05-05 20:58 46.11295 4.87307 8609 ft 275 kts 146°
2026-05-05 20:58 46.09758 4.88942 8211 ft 274 kts 146°
2026-05-05 20:58 46.08228 4.90567 7815 ft 273 kts 146°
2026-05-05 20:59 46.06723 4.92162 7413 ft 272 kts 146°
2026-05-05 20:59 46.05182 4.93792 7009 ft 271 kts 146°
2026-05-05 20:59 46.03662 4.95396 6584 ft 272 kts 145°
2026-05-05 20:59 46.02129 4.97012 6151 ft 273 kts 145°
2026-05-05 21:00 46.00623 4.98600 5874 ft 263 kts 145°
2026-05-05 21:00 45.99182 5.00120 5334 ft 257 kts 145°
2026-05-05 21:00 45.97770 5.01607 4909 ft 247 kts 145°
2026-05-05 21:00 45.96409 5.03041 4714 ft 233 kts 145°
2026-05-05 21:01 45.95147 5.04370 4671 ft 220 kts 145°
2026-05-05 21:01 45.93921 5.05661 4576 ft 217 kts 145°
2026-05-05 21:01 45.92613 5.06704 4499 ft 214 kts 164°
2026-05-05 21:01 45.91174 5.07035 4295 ft 212 kts 177°
2026-05-05 21:02 45.89704 5.07210 4025 ft 212 kts 176°
2026-05-05 21:02 45.88238 5.07388 3746 ft 211 kts 176°
2026-05-05 21:02 45.86777 5.07567 3462 ft 209 kts 176°
2026-05-05 21:02 45.85365 5.07740 3193 ft 200 kts 176°
2026-05-05 21:03 45.84006 5.07906 2931 ft 192 kts 176°
2026-05-05 21:03 45.82686 5.08067 2709 ft 189 kts 176°
2026-05-05 21:03 45.81394 5.08225 2429 ft 182 kts 176°
2026-05-05 21:03 45.80175 5.08374 2186 ft 170 kts 175°
2026-05-05 21:04 45.79040 5.08522 1917 ft 159 kts 175°
2026-05-05 21:04 45.77995 5.08636 1798 ft 143 kts 176°
2026-05-05 21:04 45.77028 5.08744 1581 ft 137 kts 175°
2026-05-05 21:04 45.76094 5.08878 1328 ft 134 kts 174°
2026-05-05 21:05 45.75173 5.08979 1151 ft 133 kts 175°
2026-05-05 21:05 45.74257 5.09094 995 ft 132 kts 174°
2026-05-05 21:05 45.73344 5.09206 801 ft 130 kts 175°
2026-05-05 21:05 45.72558 5.09305 811 ft 92 kts 175°
2026-05-05 21:06 45.72078 5.09364 815 ft 50 kts 175°
2026-05-05 21:06 45.71838 5.09358 821 ft 28 kts 191°
2026-05-05 21:06 45.71693 5.09290 821 ft 12 kts 206°
2026-05-05 21:06 45.71636 5.09214 817 ft 9 kts 250°
2026-05-05 21:07 45.71633 5.09136 814 ft 7 kts 273°
2026-05-05 21:07 45.71632 5.09097 814 ft 3 kts 266°
2026-05-05 21:07 45.71631 5.09072 814 ft 2 kts 266°
2026-05-05 21:07 45.71625 5.08993 815 ft 14 kts 264°
2026-05-05 21:08 45.71615 5.08857 812 ft 13 kts 264°
2026-05-05 21:08 45.71609 5.08774 810 ft 5 kts 264°
2026-05-05 21:08 45.71609 5.08771 810 ft 0 kts 265°
2026-05-05 21:08 45.71608 5.08745 809 ft 7 kts 266°
2026-05-05 21:09 45.71602 5.08646 806 ft 10 kts 264°
2026-05-05 21:09 45.71598 5.08546 804 ft 10 kts 277°
2026-05-05 21:09 45.71658 5.08498 803 ft 13 kts 354°
2026-05-05 21:09 45.71764 5.08485 802 ft 17 kts 355°
2026-05-05 21:10 45.71880 5.08471 802 ft 8 kts 355°
2026-05-05 21:10 45.71934 5.08456 802 ft 8 kts 326°
2026-05-05 21:10 45.71957 5.08367 800 ft 12 kts 284°
2026-05-05 21:10 45.71988 5.08260 798 ft 11 kts 317°
2026-05-05 21:11 45.72003 5.08247 797 ft 0 kts 334°
2026-05-05 21:11 45.72007 5.08246 797 ft 1 kts 347°
2026-05-05 21:11 45.72018 5.08250 797 ft 2 kts 15°
2026-05-05 21:11 45.72045 5.08216 796 ft 9 kts 295°
2026-05-05 21:12 45.72073 5.08144 797 ft 6 kts 298°
2026-05-05 21:12 45.72080 5.08125 797 ft 0 kts 299°